C/2008 E1 ( Catalina )

Japanese version
Home page
Total 5,708 html files since Dec. 4, 1995
Updated on April 20, 2008

---------------------------------------------------------------------

* Profile

Discovery Date March 2, 2008
Magnitude 19.2 mag
Discoverer Catalina Sky Survey

* Pictures

* Orbital Elements

Epoch 2008 Aug. 2.0 TT = JDT 2454680.5
T 2008 Aug. 11.28409 TT                                 MPC
q   4.8297066            (2000.0)            P               Q
n   0.02825631     Peri.  269.91023     -0.12703191     -0.98779255
a  10.6756019      Node   189.03510     +0.97048326     -0.14256066
e   0.5475940      Incl.   35.03809     -0.20500032     -0.06278798
P  34.88

* Magnitudes Graph

        m1 = 8.0 + 5 log d + 10.0 log r

---------------------------------------------------------------------

The orbital elements are published on M.P.E.C. 2008-G33.
The magnitudes graphs are made with Comet for Windows.

---------------------------------------------------------------------

Copyright(C) 1995-2007 Seiichi Yoshida (comet@aerith.net). All rights reserved.